THORAD AGENA D DEB, 4946

Orbit data source: Space-Track

THORAD AGENA D DEB, 4946 is space debris in SSO originally from a launch on Wed, 08 Apr 1970 UTC launched from the Air Force Western Test Range (AFWTR). Debris objects in space refer to the collection of defunct objects orbiting the Earth. Examples of debris include non-operational satellites, rocket bodies, and fragments generated from explosions, collisions, or faulty payload assembly.

Loading next visibility...
Identifier
4946, 1970-025GG
Orbit
SSO
Country
Flag of USUS
Related business
Manufacturer
Unknown
Mission
Spacecraft
Bus & Motor
Unknown
Mass
Unknown
Launch date (UTC)
1970-04-08 (56 years ago)
Launch vehicle
Unknown
Launch site
Air Force Western Test Range (AFWTR)
Object type
Payload
Rocket body
Debris
Shape & HBR
Unknown shape, 0.1 m
Radar Cross Section
Small (<0.1 m²)

Expand to show TLE details & history
Last TLE update: 8 hours ago

TLE from 8 hours ago
0 THORAD AGENA D DEB
1 04946U 70025GG  25353.24694469  .00001039  00000-0  98631-3 0  9992
2 04946  99.6631 108.5993 0014136  91.7954 298.5703 13.83369875778126
Epoch: 2025-12-19T05:55Z
TLE epoch observation values (Epoch: 2025-12-19T05:55:36.021Z)
Latitude
29.8015°
Longitude
-73.95877°
Altitude
950.662 km
Speed
7.382 km/s
True Right ascension
06h 52m 07s
True Declination
29° 39' 26"
Sunlit
Object was in full shadow at epoch
Visualization orbit readout
Latitude
Unknown
Longitude
Unknown
Altitude
Unknown
Speed
Unknown
Apparent Right ascension
Unknown
Apparent Declination
Unknown
Sunlit
N/A
Visualization observer readout
Local Sidereal Time
13:07:49
Azimuth
Unknown
Elevation
Unknown
Doppler factor
Unknown
Orbital elements
Apogee altitude
959.571 km
Perigee altitude
938.856 km
Semi-major axis
7,327.351 km
Eccentricity
0.00141
Inclination
99.6631°
RAAN
108.5993°
Arg. of periapsis
91.7954°
True anomaly
298.42792°
Mean anomaly
298.5703°
Eccentric anomaly
298.49912°
Mean motion
3.46037 °/min
Orbital period
104.04 mins
BSTAR
0.00098631
Loading maneuver chart data...
Computing Atmospheric mass density...

Documentation

Showing up to 5 results
|